Olathe, KS

4:40 PM CDT on August 23, 2017 (GMT -0500)
Johnson County Executive

Weather History for KOJC - August, 2012

Change the Weather History Date:

Wednesday, August 1, 2012

  Actual Average Record
Temperature  
Mean Temperature 88 °F 79 °F  
Max Temperature 99 °F 89 °F 106 °F (1980)
Min Temperature 76 °F 70 °F 55 °F (1971)
Degree Days  
Heating Degree Days 0 0  
Month to date heating degree days 0 0  
Since 1 June heating degree days 8 8  
Since 1 July heating degree days 0 0  
Cooling Degree Days 23 14  
Month to date cooling degree days 23 14  
Year to date cooling degree days 1288 786  
Since 1 June cooling degree days 1028 682  
Growing Degree Days 38 (Base 50)    
Moisture  
Dew Point 64 °F    
Average Humidity 48    
Maximum Humidity 64    
Minimum Humidity 31    
Precipitation  
Precipitation 0.00 in 0.08 in 4.06 in (1943)
Month to date precipitation 0.00 0.08  
Year to date precipitation 13.61 24.32  
Sea Level Pressure  
Sea Level Pressure 29.82 in    
Wind  
Wind Speed 7 mph (East)    
Max Wind Speed 14 mph    
Max Gust Speed 17 mph    
Visibility 10 miles    
Events      
T = Trace of Precipitation, MM = Missing Value Source: NWS Daily Summary

Daily Weather History Graph

Daily Weather History Graph

Search for Another Location

Airport or City:

Trip Planner

Search our weather history database for the weather conditions in past years. The results will help you decide how hot, cold, wet, or windy it might be!

Date:

Astronomy

Aug. 01, 2012 Rise Set
Actual Time 6:20 AM CDT 8:29 PM CDT
Civil Twilight 5:50 AM CDT 8:58 PM CDT
Nautical Twilight 5:14 AM CDT 9:35 PM CDT
Astronomical Twilight 4:35 AM CDT 10:14 PM CDT
Moon 8:00 PM CDT (8/1) 5:50 AM CDT (8/1)
Length of Visible Light 15h 08m
Length of Day
14h 08m
Full, 100% of the Moon is Illuminated
Aug 1
Full
Aug 1
Full
Aug 9
Last Quarter
Aug 17
New
Aug 24
First Quarter

Hourly Weather History & Observations

Time (CDT) Temp. Heat Index Dew Point Humidity Pressure Visibility Wind Dir Wind Speed Gust Speed Precip Events Conditions
12:53 AM 82.9 °F 84.6 °F 64.9 °F 54% 29.87 in 10.0 mi ENE 5.8 mph - N/A   Clear
1:53 AM 80.1 °F 81.9 °F 64.9 °F 60% 29.86 in 10.0 mi ESE 3.5 mph - N/A   Clear
2:53 AM 81.0 °F 82.7 °F 64.9 °F 58% 29.86 in 10.0 mi ENE 9.2 mph - N/A   Clear
3:53 AM 80.1 °F 81.7 °F 64.0 °F 58% 29.84 in 10.0 mi ENE 6.9 mph - N/A   Clear
4:53 AM 77.0 °F - 64.0 °F 64% 29.86 in 10.0 mi East 5.8 mph - N/A   Clear
5:53 AM 77.0 °F - 64.0 °F 64% 29.85 in 10.0 mi ENE 8.1 mph - N/A   Clear
7:53 AM 80.1 °F 81.9 °F 64.9 °F 60% 29.85 in 10.0 mi East 5.8 mph - N/A   Clear
8:53 AM 84.0 °F 85.8 °F 64.9 °F 53% 29.86 in 10.0 mi Variable 5.8 mph - N/A   Clear
9:53 AM 87.1 °F 88.9 °F 64.9 °F 48% 29.87 in 10.0 mi NE 5.8 mph - N/A   Clear
10:53 AM 91.0 °F 93.0 °F 64.9 °F 42% 29.89 in 10.0 mi Variable 4.6 mph - N/A   Clear
11:53 AM 93.9 °F 95.2 °F 63.0 °F 36% 29.89 in 10.0 mi Variable 4.6 mph - N/A   Clear
1:53 PM 93.9 °F 95.6 °F 64.0 °F 37% 29.83 in 10.0 mi ESE 4.6 mph - N/A   Overcast
2:53 PM 95.0 °F 95.6 °F 62.1 °F 33% 29.78 in 10.0 mi East 12.7 mph - N/A   Clear
3:53 PM 97.0 °F 98.3 °F 63.0 °F 32% 29.78 in 10.0 mi ENE 13.8 mph - N/A   Clear
4:53 PM 98.1 °F 100.7 °F 64.0 °F 33% 29.78 in 10.0 mi ENE 10.4 mph 17.3 mph N/A   Clear
5:53 PM 99.0 °F 100.5 °F 62.1 °F 30% 29.77 in 10.0 mi ESE 10.4 mph - N/A   Clear
6:53 PM 97.0 °F 97.8 °F 62.1 °F 31% 29.76 in 10.0 mi ESE 8.1 mph - N/A   Clear
7:53 PM 93.9 °F 95.2 °F 63.0 °F 36% 29.76 in 10.0 mi East 5.8 mph - N/A   Clear
8:53 PM 91.0 °F 91.5 °F 62.1 °F 38% 29.75 in 10.0 mi East 5.8 mph - N/A   Clear
9:53 PM 89.1 °F 89.3 °F 62.1 °F 40% 29.77 in 10.0 mi ENE 6.9 mph - N/A   Clear
10:53 PM 84.9 °F 86.1 °F 64.0 °F 49% 29.78 in 10.0 mi Calm Calm - N/A   Clear